This is the latest recevied weather packets stored in our database for station/object W8RD. If no packets are shown the sender has not sent any weather packets the latest 10 day(s).
| Time | Temp. | Humidity | Pressure | Rain* | Wind** | Luminosity | Snow |
|---|---|---|---|---|---|---|---|
| 1777812009 | 17.78° C | 84% | 1018.5 hPa | 0 mm | - | 61 W/m² | - |
| 1777811409 | 17.78° C | 84% | 1018.2 hPa | 0 mm | - | 53 W/m² | - |
| 1777810809 | 17.78° C | 85% | 1018.2 hPa | 0 mm | - | 34 W/m² | - |
| 1777810208 | 17.78° C | 85% | 1018.1 hPa | 0 mm | - | 40 W/m² | - |
| 1777809608 | 17.78° C | 86% | 1018 hPa | 0 mm | - | 33 W/m² | - |
| 1777809009 | 17.78° C | 86% | 1017.8 hPa | 0 mm | - | 26 W/m² | - |
| 1777808408 | 17.78° C | 86% | 1017.6 hPa | 0 mm | - | 19 W/m² | - |
| 1777807804 | 17.78° C | 86% | 1017.8 hPa | 0 mm | - | 18 W/m² | - |
| 1777807203 | 17.78° C | 86% | 1017.7 hPa | 0 mm | - | 9 W/m² | - |
| 1777806602 | 17.78° C | 86% | 1017.8 hPa | 0 mm | - | 5 W/m² | - |
| 1777806001 | 17.78° C | 85% | 1017.3 hPa | 0 mm | - | 2 W/m² | - |
| 1777805401 | 17.78° C | 85% | 1017.5 hPa | 0 mm | - | 1 W/m² | - |
| 1777804797 | 17.78° C | 85% | 1017.2 hPa | 0 mm | - | 0 W/m² | - |
| 1777804191 | 17.78° C | 84% | 1017.2 hPa | 0 mm | - | 0 W/m² | - |
| 1777803590 | 17.78° C | 84% | 1017.2 hPa | 0 mm | - | 0 W/m² | - |
| 1777802990 | 17.78° C | 84% | 1017 hPa | 0 mm | - | 0 W/m² | - |
| 1777802385 | 17.78° C | 83% | 1017.2 hPa | 0 mm | - | 0 W/m² | - |
| 1777801781 | 17.78° C | 83% | 1017.1 hPa | 0 mm | - | 0 W/m² | - |
| 1777801180 | 17.78° C | 82% | 1017 hPa | 0 mm | - | 0 W/m² | - |
| 1777800578 | 17.78° C | 82% | 1017 hPa | 0 mm | - | 0 W/m² | - |
| 1777799977 | 17.78° C | 81% | 1017 hPa | 0 mm | - | 0 W/m² | - |
| 1777799376 | 17.78° C | 81% | 1016.7 hPa | 0 mm | - | 0 W/m² | - |
| 1777798773 | 18.33° C | 80% | 1016.8 hPa | 0 mm | - | 0 W/m² | - |
| 1777798173 | 18.33° C | 80% | 1016.7 hPa | 0 mm | - | 0 W/m² | - |
| 1777797568 | 18.33° C | 80% | 1016.8 hPa | 0 mm | - | 0 W/m² | - |
* Rain latest hour (hover to see other rain measurements)
** Current wind speed in m/s (hover to see current wind gust speed)